CW5193 New Chelsea NF CA current weather conditions

sailwx.info

Wind from 084 at 12 knots gusting 15

Air temperature 8.9° C
Dewpoint 8.1° C

Last reported at 2015-Jul-06 12:42 UTC.
Time now 2015-Jul-06 13:29 UTC

Location: N 48°02' W 053°13'.
View on Google Maps.

See reports from other nearby stations

  
Tides and Currents Weather Stations Pressure Air Temp Water Temp Dewpoint Dewpoint Depression Visibility Wind Speed Wind Dir Waves Ship Positions
date/time (UTC)wind fromknots sea level pressurealtimeterstation pressurevisibilityair tempwater tempwave heightnotes
2015-Jul-06 12:42 084 12 gusting 15 8.9
2015-Jul-06 12:32 071 11 gusting 16 8.9
2015-Jul-06 12:22 082 13 gusting 16 8.9
2015-Jul-06 12:12 068 12 gusting 16 8.9
2015-Jul-06 12:02 085 11 gusting 14 8.9
2015-Jul-06 11:52 094 13 gusting 16 8.9
2015-Jul-06 11:42 076 12 gusting 18 8.9
2015-Jul-06 11:32 078 10 gusting 16 8.9
2015-Jul-06 11:22 063 13 gusting 15 8.9
2015-Jul-06 11:12 063 10 gusting 15 8.9
2015-Jul-06 11:02 076 12 gusting 14 8.9
2015-Jul-06 10:52 065 12 gusting 15 8.9
2015-Jul-06 10:42 067 13 gusting 17 8.9
2015-Jul-06 10:32 069 13 gusting 15 8.9
2015-Jul-06 10:22 068 13 gusting 17 8.9
2015-Jul-06 10:12 075 12 gusting 17 8.9
2015-Jul-06 10:02 069 12 gusting 17 8.9
2015-Jul-06 09:52 069 13 gusting 16 8.9
2015-Jul-06 09:42 061 14 gusting 16 8.9
2015-Jul-06 09:32 063 13 gusting 16 8.9
2015-Jul-06 09:22 059 14 gusting 17 8.9
2015-Jul-06 09:12 067 13 gusting 14 8.9
2015-Jul-06 09:02 063 13 gusting 16 8.9
2015-Jul-06 08:52 063 14 gusting 16 8.9
2015-Jul-06 08:42 063 12 gusting 14 8.9
2015-Jul-06 08:32 061 13 gusting 14 8.9
2015-Jul-06 08:22 059 12 gusting 13 8.9
2015-Jul-06 08:12 064 9 gusting 12 8.9
2015-Jul-06 08:02 065 10 gusting 12 8.9
2015-Jul-06 07:52 076 8 gusting 10 8.9
2015-Jul-06 07:42 071 8 gusting 10 8.9
2015-Jul-06 07:32 075 8 gusting 10 8.9
2015-Jul-06 07:22 069 9 gusting 11 8.9
2015-Jul-06 07:12 064 9 gusting 11 8.9
2015-Jul-06 07:02 059 10 gusting 11 8.9
2015-Jul-06 06:52 072 3 gusting 5 9.4
2015-Jul-06 06:42 071 4 gusting 6 8.9
2015-Jul-06 06:32 072 5 gusting 6 9.4
2015-Jul-06 06:22 064 5 gusting 7 8.9
2015-Jul-06 06:12 083 5 gusting 8 8.9
2015-Jul-06 06:02 069 6 gusting 8 8.9
2015-Jul-06 05:52 069 6 gusting 7 9.4
2015-Jul-06 05:42 076 8 gusting 11 9.4
2015-Jul-06 05:32 067 6 gusting 8 9.4
2015-Jul-06 05:22 069 3 gusting 8 9.4
2015-Jul-06 05:12 079 3 gusting 5 9.4
2015-Jul-06 05:02 059 3 gusting 10 9.4
2015-Jul-06 04:52 088 7 gusting 11 9.4
2015-Jul-06 04:42 078 8 gusting 10 9.4
2015-Jul-06 04:32 058 9 gusting 11 9.4
2015-Jul-06 04:22 060 7 gusting 11 9.4
2015-Jul-06 04:12 053 6 gusting 8 10.0
2015-Jul-06 04:02 037 4 gusting 6 10.0
2015-Jul-06 03:52 138 10.0
2015-Jul-06 03:42 100 1 gusting 8 10.0
2015-Jul-06 03:32 076 3 gusting 6 10.0
2015-Jul-06 03:22 032 3 gusting 5 9.4
2015-Jul-06 03:12 055 0 gusting 4 9.4
2015-Jul-06 03:02 063 5 gusting 9 10.0
2015-Jul-06 02:52 078 4 gusting 11 10.0
2015-Jul-06 02:42 078 5 gusting 8 10.0
2015-Jul-06 02:32 078 7 gusting 10 10.0
2015-Jul-06 02:22 042 1 gusting 9 10.0
2015-Jul-06 02:12 038 4 gusting 8 10.0
2015-Jul-06 02:02 038 4 gusting 7 10.0
2015-Jul-06 01:52 074 4 gusting 10 10.0
2015-Jul-06 01:42 059 6 gusting 9 10.0
2015-Jul-06 01:32 060 8 gusting 12 10.0
2015-Jul-06 01:22 064 6 gusting 10 10.0
2015-Jul-06 01:12 064 6 gusting 10 10.0
2015-Jul-06 01:01 044 8 gusting 11 10.0
2015-Jul-06 00:52 044 6 gusting 10 10.0
2015-Jul-06 00:42 064 7 gusting 11 10.0
2015-Jul-06 00:32 051 6 gusting 10 10.0
2015-Jul-06 00:22 065 9 gusting 13 10.6
2015-Jul-06 00:12 066 10 gusting 13 10.6
2015-Jul-06 00:02 059 7 gusting 12 10.6
2015-Jul-05 23:52 072 10 gusting 13 10.6
2015-Jul-05 23:42 057 7 gusting 10 10.6
2015-Jul-05 23:22 059 6 gusting 10 11.1
2015-Jul-05 23:12 054 6 gusting 11 11.1
2015-Jul-05 23:02 087 10 gusting 11 11.1